TIME,DELAY(SENSOR),PRES,OXYGEN,RAWTEMP,T(OPTODE),TCPHASE,FLUOR,BETA(BETA700),BETA(BETA412),BETA(BETA440),CDOM,C(CSC),ED(ED412.20),ED(ED444.00),ED(ED489.60),ED(ED554.30),LU(LU412.10),LU(LU443.90),LU(LU489.70),LU(LU554.70),COMP,TILTX,TILTY,CHECK
1356319352,5810,891.4400024414062000,34.0658493041992200,562.3582763671875000,4.4127831459045410,56.4552803039550800,55,100,99,78,82,15558,0,0,0,0,2147121051,2147774317,2147572150,2147569024,2455,2,13,21297
1356322949,5808,975.9400024414062000,40.5786209106445300,569.1704711914062000,4.2013359069824220,55.5168113708496100,55,99,100,78,82,15553,0,0,0,0,2147121188,2147771876,2147572973,2147571757,288,3,13,58583
1356326549,5810,994.2199707031250000,41.7386207580566400,570.8167114257812000,4.1501789093017580,55.3675994873046900,55,100,99,78,81,15544,0,0,0,0,2147123529,2147768347,2147572745,2147568822,55,3,13,32461
1356330149,5811,992.0900268554688000,41.8954811096191400,571.7238769531250000,4.1219792366027830,55.3565406799316400,54,100,100,78,82,15551,0,0,0,0,2147123392,2147773229,2147576301,2147571419,540,2,13,12321
1356333749,5810,1002.7100219726562000,41.4031600952148440,571.0764770507812000,4.1421008110046390,55.4179916381835940,55,110,101,77,81,15546,0,0,0,0,2147124836,2147777261,2147574692,2147571739,11,3,13,52082
1356337349,5809,1001.7600097656250000,40.8744087219238300,570.8693237304688000,4.1485419273376465,55.4933891296386700,55,99,101,77,82,15549,0,0,0,0,2147121883,2147775149,2147573778,2147567012,381,3,13,45648
1356340949,5810,1003.5300292968750000,41.3277702331543000,571.6052246093750000,4.1256690025329590,55.4342994689941400,55,99,100,77,81,15549,0,0,0,0,2147122486,2147767515,2147575890,2147570203,3547,3,13,25633
1356344549,5810,1001.3200073242188000,41.6275291442871100,572.0341796875000000,4.1123280525207520,55.3938484191894500,56,96,100,78,83,15552,0,0,0,0,2147124589,2147773376,2147574738,2147566875,176,3,13,37476
1356348149,5808,1009.2800292968750000,41.6980094909668000,572.1840209960938000,4.1076741218566895,55.3886909484863300,56,100,99,76,82,15544,0,0,0,0,2147121673,2147772617,2147576813,2147571565,3591,2,13,65190
1356351749,5812,1009.1599731445312000,41.4835090637207000,571.9379882812500000,4.1153178215026855,55.4202308654785160,55,99,101,78,82,15542,0,0,0,0,2147126336,2147771072,2147571913,2147566820,91,3,13,19696
1356355349,5809,1004.6400146484375000,41.5008392333984400,572.2667846679688000,4.1050949096679690,55.4162406921386700,55,100,100,78,82,15543,0,0,0,0,2147125504,2147767716,2147575396,2147568960,558,3,13,52913
1356358949,5813,1004.7299804687500000,42.1506805419921900,572.8192138671875000,4.0879211425781250,55.3285408020019500,55,99,102,79,82,15543,0,0,0,0,2147121728,2147771739,2147575926,2147571830,67,3,13,62039
1356362548,5808,1008.7700195312500000,42.8038215637207000,573.2567749023438000,4.0743079185485840,55.2382316589355500,56,98,101,78,82,15543,0,0,0,0,2147124169,2147771584,2147575771,2147569325,252,3,13,24393
1356366149,5810,1012.6199951171875000,42.7315902709960940,572.9946899414062000,4.0824599266052250,55.2432289123535160,55,98,101,78,81,15543,0,0,0,0,2147124260,2147769682,2147571629,2147570413,58,3,13,48199
1356369749,5810,1007.0700073242188000,42.0472908020019500,572.9907836914062000,4.0825819969177250,55.3494911193847660,55,99,101,77,82,15542,0,0,0,0,2147120356,2147774006,2147577517,2147570121,340,3,13,63565
1356373349,5809,1016.6400146484375000,41.9215583801269500,572.2202148437500000,4.1065478324890140,55.3563804626464840,55,99,102,77,82,15540,0,0,0,0,2147120365,2147769490,2147576704,2147568987,186,3,13,5329
1356376949,5809,1015.0599975585938000,41.5444107055664060,571.8892211914062000,4.1168370246887210,55.4091987609863300,54,98,101,78,82,15541,0,0,0,0,2147122130,2147774820,2147575524,2147571254,70,3,13,26659
1356380548,5809,1010.0100097656250000,41.2717590332031250,571.8792724609375000,4.1171460151672360,55.4422492980957000,55,98,101,77,82,15539,0,0,0,0,2147121152,2147771876,2147570377,2147569270,224,3,13,1871
1356384149,5808,1004.2399902343750000,42.7067604064941400,574.0584716796875000,4.0493721961975100,55.2597312927246100,55,99,100,77,82,15539,0,0,0,0,2147123748,2147776685,2147579977,2147567579,353,3,13,37293
1356387749,5810,1015.7800292968750000,43.1921081542968750,573.0944824218750000,4.0793547630310060,55.1813087463378900,54,99,101,78,82,15539,0,0,0,0,2147123062,2147775881,2147575625,2147571181,520,3,13,30538
1356391348,5809,1008.9099731445312000,42.7120895385742200,573.3496704101562000,4.0714211463928220,55.2542686462402340,55,99,101,79,83,15539,0,0,0,0,2147123126,2147773769,2147574537,2147572096,3529,2,13,9070
1356394949,5809,1010.8200073242188000,43.5768089294433600,573.8125000000000000,4.0570240020751950,55.1315803527832000,55,100,101,78,82,15535,0,0,0,0,2147123940,2147770779,2147574180,2147568018,3222,2,13,60502
1356398549,5808,1018.0800170898438000,42.7658386230468750,572.9542846679688000,4.0837168693542480,55.2425193786621100,55,98,100,79,81,15539,0,0,0,0,2147121718,2147773732,2147577654,2147569508,171,3,13,49058
1356402149,5809,1021.2600097656250000,41.6466903686523440,572.0430908203125000,4.1120529174804690,55.3952598571777340,55,99,99,78,81,15533,0,0,0,0,2147122907,2147771108,2147575424,2147570486,176,3,13,54484
1356405749,5812,1013.9600219726562000,41.4447402954101560,572.7990112304688000,4.0885472297668460,55.4294090270996100,55,98,100,77,83,15537,0,0,0,0,2147124416,2147773540,2147576256,2147569426,9,2,13,45795
1356409349,5808,1015.9600219726562000,42.3328895568847660,572.6348876953125000,4.0936489105224610,55.2963905334472660,54,98,100,78,82,15537,0,0,0,0,2147123382,2147771392,2147579236,2147568521,278,2,13,59877
1356412949,5811,1017.3300170898438000,41.8112602233886700,572.9661865234375000,4.0833468437194820,55.3806686401367200,55,98,100,78,83,15536,0,0,0,0,2147122002,2147773979,2147574573,2147568841,50,3,13,32964
1356416549,5809,1019.0399780273438000,42.2823791503906250,572.9468994140625000,4.0839481353759770,55.3113288879394500,55,101,101,78,81,15532,0,0,0,0,2147123748,2147775131,2147578368,2147565120,175,2,13,52400
1356420149,5811,1019.4899902343750000,41.5294189453125000,572.5048217773438000,4.0976958274841310,55.4186897277832000,54,98,100,78,82,15534,0,0,0,0,2147122843,2147771273,2147575670,2147568109,3432,2,13,15859
1356423748,5810,1014.8200073242188000,41.0611991882324200,572.8474121093750000,4.0870418548583980,55.4925498962402340,55,99,100,77,81,15534,0,0,0,0,2147123300,2147767296,2147573056,2147568146,509,2,13,19867
1356427349,5808,1018.6799926757812000,41.6690406799316400,572.6140136718750000,4.0942988395690920,55.3951301574707000,54,98,100,78,82,15535,0,0,0,0,2147119405,2147769819,2147572425,2147568374,104,2,13,36532
1356430949,5808,1017.0900268554688000,42.0929412841796900,572.9038696289062000,4.0852828025817870,55.3401908874511700,54,98,100,78,83,15531,0,0,0,0,2147125677,2147776027,2147576640,2147570733,377,3,13,43536
1356434549,5809,1012.4699707031250000,41.6729507446289060,572.8015136718750000,4.0884699821472170,55.3949890136718750,53,107,101,78,82,15534,0,0,0,0,2147123017,2147770797,2147573869,2147568164,107,2,13,43211
1356438149,5807,1018.2000122070312000,42.8366889953613300,572.9630126953125000,4.0834479331970215,55.2309684753418000,55,100,100,78,83,15529,0,0,0,0,2147120905,2147773613,2147574180,2147567451,3189,3,13,25141
1356441749,5810,1016.8499755859375000,43.2599105834960940,573.3914184570312000,4.0701241493225100,55.1754608154296900,54,100,105,77,82,15531,0,0,0,0,2147121645,2147776201,2147578834,2147570660,729,3,13,10711
1356445349,5809,1020.3599853515625000,43.0718002319335940,573.4375000000000000,4.0686869621276855,55.2023696899414060,55,98,101,78,82,15533,0,0,0,0,2147122569,2147777673,2147572315,2147570285,717,3,13,20323
1356448949,5811,1019.5100097656250000,41.9960289001464840,572.9174804687500000,4.0848598480224610,55.3541107177734400,56,99,101,78,81,15533,0,0,0,0,2147122733,2147777097,2147577810,2147568713,3496,3,13,2280
1356452549,5811,1012.2500000000000000,41.7621688842773440,573.1337890625000000,4.0781350135803220,55.3877792358398440,54,98,100,79,84,15531,0,0,0,0,2147120923,2147773001,2147578761,2147569993,3212,2,13,21392
1356456149,5808,1023.3800048828125000,43.1307716369628900,573.1677856445312000,4.0770778656005860,55.1867103576660160,54,98,100,79,82,15529,0,0,0,0,2147123300,2147772754,2147573842,2147569828,412,3,13,48865
1356459749,5811,1019.9400024414062000,42.7782707214355500,573.1583251953125000,4.0773739814758300,55.2379913330078100,54,98,100,78,83,15529,0,0,0,0,2147118966,2147772114,2147574619,2147570395,594,2,13,2182
1356462956,5809,1019.4099731445312000,42.8828697204589840,572.9835205078125000,4.0828089714050290,55.2227516174316400,55,98,100,78,83,15527,0,0,0,0,2147120676,2147773970,2147575981,2147570057,392,3,13,32621
